Location: Gokavaram
(16.9752°N, 81.0696°E)
Time: 05:42:25
(UTC+00:00)

Delta 202 - Pass Details

Date: 15 May 2026
Orbit: 781 x 2712 km, 18.5° (Epoch: 6 June)

Event Time Altitude Azimuth Distance (km) Brightness Sun altitude
Rises 13:16:42 0° 276° (W) 3,492 8.8 -4.6°
Reaches altitude 10° 13:19:27 10° 270° (W) 2,427 7.5 -5.2°
Maximum altitude 13:24:43 49° 196° (SSW) 987 4.1 -6.4°
Drops below altitude 10° 13:29:56 10° 121° (ESE) 2,394 5.4 -7.5°
Enters shadow 13:30:14 - 120° (ESE) 2,511 5.5 -7.6°
